Tulsa Jones, OK

6:44 PM CDT on May 22, 2017 (GMT -0500)
Jones Jr.

Weather History for KRVS - March, 2013

Change the Weather History Date:

Tuesday, March 12, 2013

  Actual Average (KTUL) Record (KTUL)
Temperature  
Mean Temperature 46 °F -  
Max Temperature 61 °F 61 °F 91 °F (1967)
Min Temperature 30 °F 40 °F -3 °F (1948)
Degree Days  
Heating Degree Days 20    
Moisture  
Dew Point 26 °F    
Average Humidity 50    
Maximum Humidity 79    
Minimum Humidity 23    
Precipitation  
Precipitation 0.00 in - - ()
Sea Level Pressure  
Sea Level Pressure 30.23 in    
Wind  
Wind Speed 4 mph (North)    
Max Wind Speed 8 mph    
Max Gust Speed 22 mph    
Visibility 10 miles    
Events Rain    
Averages and records for this station are not official NWS values.
T = Trace of Precipitation, MM = Missing Value Source: NWS Daily Summary

Daily Weather History Graph

Daily Weather History Graph

Search for Another Location

Airport or City:

Trip Planner

Search our weather history database for the weather conditions in past years. The results will help you decide how hot, cold, wet, or windy it might be!

Date:

Astronomy

Mar. 12, 2013 Rise Set
Actual Time 7:38 AM CDT 7:29 PM CDT
Civil Twilight 7:13 AM CDT 7:54 PM CDT
Nautical Twilight 6:43 AM CDT 8:24 PM CDT
Astronomical Twilight 6:13 AM CDT 8:54 PM CDT
Moon 7:48 AM CDT (3/12) 8:41 PM CDT (3/12)
Length of Visible Light 12h 41m
Length of Day
11h 50m
New Moon, 1% of the Moon is Illuminated
Mar 12
New Moon
Mar 19
First Quarter
Mar 27
Full
Apr 2
Last Quarter
Apr 10
New

Hourly Weather History & Observations

Time (CDT) Temp. Windchill Dew Point Humidity Pressure Visibility Wind Dir Wind Speed Gust Speed Precip Events Conditions
12:53 AM 30.9 °F - 23.0 °F 72% 30.08 in 10.0 mi Calm Calm - N/A   Clear
1:53 AM 30.9 °F 26.2 °F 25.0 °F 79% 30.07 in 10.0 mi North 4.6 mph - N/A   Clear
2:53 AM 33.1 °F 26.9 °F 25.0 °F 72% 30.10 in 10.0 mi SSW 6.9 mph - N/A   Clear
3:53 AM 34.0 °F - 21.9 °F 61% 30.12 in 10.0 mi Calm Calm - N/A   Clear
4:53 AM 32.0 °F 28.7 °F 25.0 °F 75% 30.14 in 10.0 mi ENE 3.5 mph - N/A   Clear
5:53 AM 34.0 °F - 26.1 °F 73% 30.18 in 10.0 mi Calm Calm - N/A   Mostly Cloudy
6:53 AM 33.1 °F - 26.1 °F 75% 30.19 in 10.0 mi Calm Calm - N/A   Clear
7:53 AM 36.0 °F 33.3 °F 28.0 °F 73% 30.21 in 10.0 mi SW 3.5 mph - 0.00 in Rain Light Rain
8:53 AM 39.9 °F - 28.0 °F 63% 30.24 in 10.0 mi Calm Calm - 0.00 in Rain Light Rain
9:53 AM 44.1 °F - 30.9 °F 60% 30.26 in 10.0 mi Calm Calm - 0.00 in   Overcast
10:53 AM 52.0 °F - 33.1 °F 49% 30.27 in 10.0 mi North 8.1 mph - N/A   Clear
11:53 AM 54.0 °F - 30.0 °F 40% 30.28 in 10.0 mi NE 8.1 mph - N/A   Clear
12:53 PM 57.0 °F - 34.0 °F 42% 30.27 in 10.0 mi NNE 8.1 mph - N/A   Clear
1:53 PM 55.9 °F - 32.0 °F 40% 30.26 in 10.0 mi Variable 5.8 mph - N/A   Partly Cloudy
2:53 PM 57.9 °F - 30.0 °F 35% 30.25 in 10.0 mi WSW 5.8 mph - N/A   Clear
3:53 PM 59.0 °F - 26.1 °F 28% 30.24 in 10.0 mi Variable 6.9 mph - N/A   Clear
4:53 PM 61.0 °F - 23.0 °F 23% 30.23 in 10.0 mi North 8.1 mph - N/A   Clear
5:53 PM 60.1 °F - 21.9 °F 23% 30.23 in 10.0 mi NNW 8.1 mph 21.9 mph N/A   Clear
6:53 PM 57.0 °F - 21.9 °F 26% 30.25 in 10.0 mi NNW 8.1 mph - N/A   Clear
7:53 PM 54.0 °F - 23.0 °F 30% 30.29 in 10.0 mi North 5.8 mph - N/A   Clear
8:53 PM 51.1 °F - 23.0 °F 33% 30.32 in 10.0 mi North 6.9 mph - N/A   Clear
9:53 PM 48.0 °F - 24.1 °F 39% 30.34 in 10.0 mi North 5.8 mph - N/A   Clear
10:53 PM 46.0 °F 41.9 °F 21.9 °F 39% 30.36 in 10.0 mi NNE 8.1 mph - N/A   Clear
11:53 PM 44.1 °F 42.5 °F 21.9 °F 42% 30.38 in 10.0 mi North 3.5 mph - N/A   Clear